sat.trackr.live / text

‹ back to catalog

STARLINK-30231

NORAD 57514 · 2023-113V

PAYLOAD ACTIVE UNKNOWN

§ Identity

Operator
Country
US
Launch date
2023-08-07
Launch site
AFETR
Launch vehicle
Mass (kg)
RCS (m²)

Purposes: comms

External: N2YO · Heavens-Above · Gunter

§ Orbital elements

Epoch: 2026-09-20T12:37:09.978816Z

Period
94.27 min
Inclination
43.0045°
Eccentricity
0.0001384
Mean motion
15.27576022 rev/d
Perigee alt
482.1 km
Apogee alt
484.0 km
Semi-major
6,861.2 km
B*
-2.9740e-6
RAAN
355.6612°
Arg perigee
248.3178°
Mean anomaly
111.7527°
Rev number
17,347

§ Raw data

STARLINK-302311 57514U 23113V   26263.52580994 -.00000344  00000+0 -29740-5 0  99922 57514  43.0045 355.6612 0001384 248.3178 111.7527 15.27576022173470

JSON: /api/v1/satellites/57514 · /tle

For live sub-satellite position, see the globe view (requires WebGL).

§ Visibility from observer

Set your observer location to see the next 7 days of passes ≥ 10°. The values pass through the URL so the page stays shareable.

No JS? Fill the form by hand. The geolocation button needs JavaScript.